0 RELAY 1 (A-15) 1 00503U 62068A 25293.22039620 -.00000015 00000-0 00000-0 0 9992 2 00503 47.5314 12.1939 2837608 287.6395 58.8425 7.78163102786809 0 TELSTAR 2 (A-41) 1 00573U 63013A 25293.60724402 -.00000037 00000-0 -41770-3 0 9998 2 00573 42.7523 237.3847 4016446 219.3651 338.6505 6.39266647570827 0 RELAY 2 1 00737U 64003A 25293.80816889 -.00000024 00000-0 00000-0 0 9996 2 00737 46.4510 255.1248 2598125 112.7668 276.6772 7.39533971668384 0 ELEKTRON 1 1 00746U 64006A 25293.88912198 .00002156 00000-0 58652-3 0 9993 2 00746 60.8642 152.4252 2999944 165.7026 205.2376 9.10004413 45454 0 ELEKTRON 3 1 00829U 64038A 25293.04022301 .00001745 00000-0 49221-3 0 9991 2 00829 60.8203 173.3462 2940701 284.7142 44.9160 9.20551261993328 0 OPS 3662 (VELA 3) 1 836U 64040A 25273.54461856 .00000621 00000-0 00000+0 0 9997 2 836 51.7024 124.1098 4701837 285.9915 0.6141 0.23918308 10379 0 OPS 3674 (VELA 4) 1 837U 64040B 25267.08260992 .00000086 00000-0 00000+0 0 9993 2 837 48.8014 128.4628 5006560 257.7278 0.4454 0.23999503 54080 0 LES 2 1 01360U 65034B 25292.91387953 -.00000011 00000-0 00000-0 0 9996 2 01360 32.0797 162.0761 3958287 199.5626 139.5710 4.64830466 26693 0 OPS 6577 (VELA 5) 1 01458U 65058A 25282.40593145 -.00000915 00000-0 00000-0 0 9998 2 01458 26.2777 19.1252 4976579 308.0833 1.4758 0.21369494 11514 0 INTELSAT 2-F1 1 02514U 66096A 25291.35506272 -.00000514 00000-0 00000-0 0 9999 2 02514 17.2123 101.5772 6377587 96.8411 334.6135 2.00469163 89963 0 OV1-13 1 03173U 68026A 25293.92774361 .00000218 00000-0 30548-3 0 9990 2 03173 99.9346 317.1449 3852941 123.4541 279.5249 7.25768281520840 0 OV1-14 1 03174U 68026B 25293.93107823 .00000222 00000-0 36585-3 0 9997 2 03174 100.0021 286.9468 4006755 118.8540 318.8550 6.96693341459654 0 OV1-19 1 03825U 69025C 25293.90883655 .00000566 00000-0 29347-3 0 9990 2 03825 104.7015 103.5510 2679183 288.7366 44.3354 9.58114480962324 0 OPS 7724 1 06791U 73056A 25283.43198152 -.00000058 00000-0 -54504-3 0 9993 2 06791 62.3978 62.5485 7290025 278.3770 12.2838 2.00679804 44603 0 COSMOS 606 1 06916U 73084A 25291.85837925 .00000115 00000-0 00000-0 0 9997 2 06916 72.7343 80.3344 5071917 129.5453 286.8710 2.00805988380611 0 MOLNIYA 2-9 1 07276U 74026A 25293.54440487 -.00000007 00000-0 00000-0 0 9996 2 07276 64.3919 56.9525 6639144 265.3408 22.1141 2.45095275279142 0 MOLNIYA 2-10 1 7376U 74056A 25280.10366275 -.00001168 00000-0 00000+0 0 9998 2 7376 65.3870 326.1878 6792812 272.7099 17.6362 2.01177421374644 0 COSMOS 706 1 07625U 75007A 25293.65672535 -.00000930 00000-0 00000-0 0 9992 2 07625 64.0350 179.1249 6858721 3.0912 359.7874 2.00884749231635 0 MOLNIYA 1-29 1 07780U 75036A 25293.47918139 .00000031 00000-0 -68468-1 0 9994 2 07780 63.8012 88.0882 6834721 280.4718 14.7322 2.00585469370119 0 MOLNIYA 2-14 1 08195U 75081A 25290.98663494 .00000750 00000-0 00000-0 0 9993 2 08195 64.3629 60.2029 6817474 285.3604 13.4377 2.02094119367514 0 MOLNIYA 1-32 1 08601U 76006A 25286.87433544 .00000996 00000-0 00000-0 0 9999 2 08601 63.6494 159.7718 6706005 278.2734 16.3668 2.00057027 76954 0 COSMOS 862 1 09495U 76105A 25293.15634736 .00000594 00000-0 00000-0 0 9990 2 09495 70.1886 51.7444 6316716 189.2382 148.9077 2.00421549236843 0 MOLNIYA 1-36 1 09880U 77021A 25283.67168282 .00000569 00000-0 00000-0 0 9992 2 09880 63.6557 135.8978 6690229 283.2662 14.8513 2.00861709253660 0 ESA/GOES 1 09931U 77029A 25290.98741786 .00000420 00000-0 00000-0 0 9991 2 09931 27.1115 83.6590 6568900 241.4074 38.7407 1.96171586347106 0 COSMOS 931 1 10150U 77068A 25292.08608924 .00000451 00000-0 00000-0 0 9992 2 10150 70.3020 67.0307 5450853 331.0025 7.2926 2.00545885353923 0 MOLNIYA 3-8 1 10455U 77105A 25292.24855898 -.00000559 00000-0 00000-0 0 9994 2 10455 63.7065 201.0047 6781613 278.9102 15.5974 2.00446658351611 0 MOLNIYA 1-40 1 10925U 78055A 25293.90143023 -.00000282 00000-0 00000-0 0 9998 2 10925 63.9630 247.1629 6886366 276.6763 15.4646 2.00513179347184 0 MOLNIYA 3-10 1 11057U 78095A 25293.87892091 -.00000091 00000-0 -12073-2 0 9995 2 11057 63.6976 327.8795 5594146 313.8580 11.7689 4.09913204433796 0 GORIZONT 1 1 11158U 78118A 25293.10062670 -.00000211 00000-0 00000-0 0 9999 2 11158 12.0530 161.5070 3102193 347.0818 6.8015 1.00290824120536 0 AYAME 1 (ECS 1) 1 11261U 79009A 25293.87073237 -.00000133 00000-0 00000-0 0 9992 2 11261 10.0264 316.4709 3659433 114.8182 37.8589 1.68582650172128 0 COSMOS 1109 1 11417U 79058A 25270.76558620 -.00000245 00000-0 00000-0 0 9990 2 11417 70.5661 205.2178 5858459 205.3564 107.8659 2.01363757228557 0 SATCOM 3 1 11635U 79101A 25293.32753058 -.00000097 00000-0 00000-0 0 9995 2 11635 8.5050 105.5633 4787404 61.9735 85.5334 1.82525914219595 0 AYAME 2 (ECS-2) 1 11715U 80018A 25293.65337573 -.00000077 00000-0 00000-0 0 9997 2 11715 9.3236 53.7732 4383363 261.7412 46.5698 1.75494761230827 0 COSMOS 1191 1 11871U 80057A 25293.74766387 -.00000287 00000-0 00000-0 0 9995 2 11871 65.7366 93.9655 6676295 22.4315 356.5088 2.00851044238651 0 MOLNIYA 3-13 1 11896U 80063A 25287.16179602 .00000250 00000-0 17542-2 0 9996 2 11896 63.7553 324.2834 7289303 277.8834 12.3045 2.00585034331462 0 COSMOS 1217 1 12032U 80085A 25286.88128760 .00000677 00000-0 00000-0 0 9992 2 12032 70.0654 189.9816 5619637 248.6283 44.4879 2.01010706277261 0 COSMOS 1223 1 12078U 80095A 25284.36428628 .00000008 00000-0 00000-0 0 9998 2 12078 72.9753 54.5911 4730349 311.4332 284.2306 2.00824824328632 0 OPS 5805 1 12093U 80100A 25275.19035507 -.00000190 00000-0 00000+0 0 9995 2 12093 63.9697 225.2486 6512069 270.1890 20.9736 2.00632172 46989 0 KIKU 3 (ETS 4) 1 12295U 81012A 25287.27423924 .00027927 00000-0 27309-2 0 9998 2 12295 28.4508 265.4513 4793495 303.6504 19.3828 6.00523508626257 0 COSMOS 1247 1 12303U 81016A 25293.12424366 -.00000645 00000-0 00000-0 0 9990 2 12303 68.8437 11.7620 6277484 346.1317 2.6380 2.02497329330314 0 COSMOS 1261 1 12376U 81031A 25292.03484639 .00000190 00000-0 00000-0 0 9999 2 12376 68.6281 103.7353 5988346 356.8775 0.6067 2.00912999222633 0 CAT 3 1 12546U 81057C 25293.65925467 .00002716 00000-0 65355-3 0 9997 2 12546 10.2174 54.2168 5695784 28.3103 353.3503 4.48944229404277 0 DYNAMICS EXPLORER 1 1 12624U 81070A 25288.26822449 .00000079 00000-0 11353-3 0 9995 2 12624 90.9198 45.2861 6190573 283.6415 18.1869 3.52889010716518 0 COSMOS 1285 1 12627U 81071A 25293.62893562 -.00000506 00000-0 00000-0 0 9999 2 12627 68.3295 106.5413 6139964 358.2802 176.7757 1.98061661241756 0 COSMOS 1305 1 12818U 81088A 25291.85409469 .00000108 00000-0 23106-3 0 9993 2 12818 62.7667 125.9305 4875077 264.0603 40.6706 5.46240163879570 0 COSMOS 1317 1 12933U 81108A 25285.51623995 .00000118 00000-0 00000-0 0 9998 2 12933 71.4966 120.6441 4764710 328.5024 268.1982 2.00224228321301 0 CAT 4 1 13011U 81122B 25293.73031102 .00002350 00000-0 61338-3 0 9992 2 13011 10.4771 283.2542 6517039 34.1069 354.3522 3.28652686352974 0 MOLNIYA 1-52 1 13012U 81123A 25279.64981130 .00001663 00000-0 37946-2 0 9996 2 13012 61.5736 108.6210 7336924 271.6943 13.7929 2.00737996320796 0 MOLNIYA 1-53 1 13070U 82015A 25281.85535921 -.00001322 00000-0 -82258-3 0 9991 2 13070 63.2344 69.6227 7068478 283.7551 12.2920 2.00609597319522 0 COSMOS 1348 1 13124U 82029A 25291.44051010 .00000082 00000-0 00000-0 0 9996 2 13124 71.8451 154.2619 4991432 339.4686 224.7137 2.00273025318546 0 COSMOS 1367 1 13205U 82045A 25280.30010342 .00000062 00000-0 00000-0 0 9998 2 13205 71.9500 76.1150 4979094 330.3273 8.8174 2.00481388317742 0 COSMOS 1382 1 13295U 82064A 25293.53523763 -.00000800 00000-0 00000-0 0 9994 2 13295 62.3239 177.0137 7132503 40.4503 355.0623 2.00630596275751 0 MOLNIYA 3-20 1 13875U 83015A 25283.70733342 -.00000697 00000-0 -29410-1 0 9991 2 13875 62.0431 178.2123 7073118 269.8618 16.4595 2.00794673248016 0 MOLNIYA 1-56 1 13890U 83019A 25266.15558515 -.00000494 00000-0 00000+0 0 9995 2 13890 62.5576 202.4613 7043096 273.6505 15.3488 2.00085810310477 0 ASTRON 1 13901U 83020A 25293.03036584 -.00000523 00000-0 00000-0 0 9998 2 13901 79.0190 60.5895 6004647 46.2002 358.8860 0.24299740 10563 0 OV2-3 1 13912U 65108V 25292.50717000 .00018189 00000-0 16681-2 0 9997 2 13912 26.6199 330.1790 5263386 95.9783 323.5054 5.23067705557990 0 OSCAR 10 1 14129U 83058B 25292.97343551 .00000100 00000-0 00000-0 0 9999 2 14129 26.2079 260.3254 6068021 48.6841 349.6289 2.05870926290541 0 COSMOS 1481 1 14182U 83070A 25289.20638646 .00000771 00000-0 00000+0 0 9999 2 14182 70.8015 264.6420 5581733 238.0764 55.6855 2.03571085235134 0 STTW-T1 1 14670U 84008A 25293.95285401 .00002017 00000-0 93809-3 0 9995 2 14670 36.1161 168.2940 2975386 16.3784 351.5121 9.03771698362455 0 COSMOS 1541 1 14790U 84024A 25292.18738000 .00000153 00000-0 00000-0 0 9995 2 14790 71.7636 157.8208 5233292 347.5347 208.0479 2.00549824277104 0 COSMOS 1547 1 14884U 84033A 25292.51878166 -.00000670 00000-0 00000-0 0 9999 2 14884 73.0889 342.1666 5681148 259.3527 35.2604 2.00509881244504 0 COSMOS 1581 1 15095U 84071A 25293.54794403 -.00000201 00000-0 00000-0 0 9991 2 15095 67.0438 38.2507 6717024 7.2761 358.8259 1.99740192275685 0 CCE 1 (AMPTE) 1 15199U 84088A 25293.53303797 -.00000041 00000-0 00000-0 0 9997 2 15199 4.3762 309.5495 7660234 358.8207 183.3330 1.53320625196751 0 USA 4 1 15226U 84091A 25288.13495529 .00000970 00000-0 00000-0 0 9997 2 15226 62.9530 109.2070 6493235 283.0162 16.2503 2.00937119 45790 0 COSMOS 1596 1 15267U 84096A 25293.78379402 .00000822 00000-0 00000-0 0 9991 2 15267 65.8200 152.7763 6648854 27.7572 355.9426 2.00510794301204 0 MOLNIYA 1-63 1 15429U 84124A 25281.31944390 -.00000436 00000-0 00000+0 0 9994 2 15429 63.4052 26.2527 7250033 256.8063 17.9986 2.00915522299003 0 MOLNIYA 3-24 1 15738U 85040A 25286.71080597 .00000100 00000-0 -78582-3 0 9996 2 15738 62.3788 201.7503 6861737 254.8484 25.2666 2.55670414334912 0 COSMOS 1661 1 15827U 85049A 25293.14517490 .00000967 00000-0 00000-0 0 9993 2 15827 67.8277 122.5452 5704361 67.1156 342.1007 2.00682964295476 0 COSMOS 1675 1 15952U 85071A 25280.68779772 .00000073 00000-0 00000+0 0 9992 2 15952 65.6363 88.5278 6210281 280.1165 19.3804 3.14131547381763 0 COSMOS 1684 1 16064U 85084A 25288.06550552 .00000804 00000-0 00000-0 0 9997 2 16064 67.5721 95.0857 5121332 101.0053 318.3559 2.00705426293406 0 COSMOS 1698 1 16183U 85098A 25293.56406479 .00000027 00000-0 00000-0 0 9990 2 16183 71.2596 114.4376 5279263 355.9616 190.8251 2.00677880292935 0 MOLNIYA 3-27 1 16393U 85117A 25286.90455130 -.00000029 00000-0 -90661-2 0 9991 2 16393 62.2398 262.1787 7138787 249.2920 25.3907 2.12407457299970 0 COSMOS 1729 1 16527U 86011A 25292.34110940 .00000018 00000-0 00000-0 0 9998 2 16527 70.8213 197.1568 4408533 46.4235 99.9433 2.00458299290920 0 VIKING 1 16614U 86019B 25293.77238505 .00000199 00000-0 22962-2 0 9992 2 16614 98.7895 212.8217 4697212 12.5098 14.7391 5.50584351797076 0 COSMOS 1761 1 16849U 86050A 25286.19956531 -.00000400 00000-0 00000-0 0 9994 2 16849 70.2694 56.9467 5721930 10.6305 357.7066 2.00614649287640 0 MOLNIYA 1-69 1 17078U 86089A 25274.10599469 .00001116 00000-0 00000+0 0 9995 2 17078 63.6750 48.9308 7283125 252.6575 21.9470 2.00761884284939 0 COSMOS 1806 1 17213U 86098A 25291.30912281 .00000135 00000-0 00000-0 0 9999 2 17213 68.4502 155.1033 4673380 84.8758 44.3450 2.00390093284459 0 MOLNIYA 3-31 1 17328U 87008A 25287.13278422 .00000545 00000-0 12873-2 0 9994 2 17328 62.4197 311.7171 7414627 257.0639 18.3018 2.00599267280232 0 COSMOS 1851 1 18103U 87050A 25286.73407583 .00000005 00000-0 00000-0 0 9998 2 18103 70.8630 196.2271 4515171 46.1106 57.8468 2.00416019280853 0 COSMOS 1922 1 18881U 88013A 25288.99178929 .00000632 00000-0 00000-0 0 9996 2 18881 68.6808 86.6779 5831979 49.4374 348.3572 2.00326196275634 0 MOLNIYA 1-71 1 18946U 88017A 25287.07728256 .00000490 00000-0 11544-2 0 9993 2 18946 62.0725 295.2788 7420416 264.2882 15.4113 2.00255646275424 0 USA 31 1 19458U 88077A 25289.88866617 -.00000145 00000-0 -50352-2 0 9992 2 19458 27.2962 79.7662 7284577 66.5746 351.3299 2.00894597 10432 0 COSMOS 1974 1 19554U 88092A 25267.03516919 .00000089 00000-0 00000+0 0 9993 2 19554 70.0064 194.5191 4363910 70.9953 64.7932 2.00524957270792 0 COSMOS 1977 1 19608U 88096A 25293.03444230 -.00000525 00000-0 00000-0 0 9999 2 19608 69.1012 126.7943 5397915 56.5780 58.8041 2.00365792270983 0 MOLNIYA 1-75 1 19807U 89014A 25288.87209039 .00001092 00000-0 00000+0 0 9991 2 19807 63.7941 164.0819 6698089 257.3624 25.5819 2.00409822268385 0 HIPPARCOS 1 20169U 89062B 25293.87266957 .00000099 00000-0 18415-2 0 9993 2 20169 6.9714 48.1402 7196772 165.0025 240.8138 2.26387184263934 0 COSMOS 2050 1 20330U 89091A 25293.67598304 -.00000585 00000-0 00000-0 0 9997 2 20330 65.1411 101.4118 6062453 166.3369 223.2459 2.00551842263009 0 COSMOS 2063 1 20536U 90026A 25279.17245999 .00000231 00000-0 00000-0 0 9990 2 20536 66.7086 184.2242 5600115 135.4307 286.4029 1.99581555258986 0 USA 59 1 20641U 90050A 25280.10505524 .00000016 00000-0 00000-0 0 9993 2 20641 63.3823 225.6898 4052011 266.2473 47.8691 6.02585163 31086 0 COSMOS 2087 1 20707U 90064A 25292.60073606 -.00000646 00000-0 00000-0 0 9990 2 20707 67.7479 201.8739 6109728 30.7344 353.9348 2.00714425258007 0 CRRES 1 20712U 90065A 25293.65207300 .00000486 00000-0 46340-3 0 9994 2 20712 18.1137 43.4227 7067205 95.3766 341.6112 2.49766085303719 0 MOLNIYA 1-80 1 21118U 91012A 25288.27844181 -.00000606 00000-0 00000-0 0 9999 2 21118 64.8920 215.7591 6329316 260.0748 27.8728 2.05245663255932 0 MOLNIYA 3-40 1 21196U 91022A 25278.68394478 -.00000094 00000-0 00000-0 0 9990 2 21196 64.7142 210.6821 6401753 257.7693 28.4888 2.03001668254173 0 MOLNIYA 1-81 1 21426U 91043A 25283.33249454 .00000190 00000-0 00000-0 0 9996 2 21426 63.4190 205.2310 6737705 259.9146 23.7999 2.00586814251454 0 MOLNIYA 3-41 1 21706U 91065A 25293.30367007 .00000222 00000-0 86063-3 0 9996 2 21706 63.3152 0.2022 7417980 251.5033 20.9108 2.04406142251819 0 USA 72 1 21775U 91076A 25280.31886541 -.00000014 00000-0 00000-0 0 9994 2 21775 63.3862 314.3361 3365464 272.7819 49.9531 5.53396024 28569 0 STTW-5 1 21833U 91088A 25292.83056373 -.00000015 00000-0 00000-0 0 9995 2 21833 31.2369 124.7774 6605866 118.7696 321.8784 2.27648001353767 0 GEOTAIL 1 22049U 92044A 25282.97873017 -.00001028 00000-0 00000-0 0 9999 2 22049 45.2182 358.8670 5866056 265.2051 0.0519 0.19200478 15276 0 MOLNIYA 3-42 1 22178U 92067A 25287.21012229 .00000050 00000-0 00000-0 0 9992 2 22178 64.5388 77.9596 6880350 249.6267 28.2897 2.20432219106834 0 COSMOS 2232 1 22321U 93006A 25292.03575880 -.00000691 00000-0 00000-0 0 9991 2 22321 67.2894 197.1263 5550918 130.3107 293.2821 2.00556291239567 0 ARASENE 1 22654U 93031B 25293.72062940 -.00000133 00000-0 00000-0 0 9994 2 22654 4.8763 54.0683 2837523 320.4399 22.5532 1.42202951164012 0 MOLNIYA 1-86 1 22671U 93035A 25293.93992016 .00003236 00000-0 18604-2 0 9993 2 22671 62.9271 240.0213 4912492 28.3371 351.3345 5.64603149421115 0 MOLNIYA 1-87 1 22949U 93079A 25287.16154157 .00000049 00000-0 00000-0 0 9991 2 22949 64.9925 310.0953 6883691 272.3214 16.9998 2.02879624 99578 0 VEP 1 22979U 94007B 25293.75065493 .00000271 00000-0 64287-3 0 9999 2 22979 28.6558 101.8017 7246318 161.6176 253.2290 2.25928740260888 0 SJ-4 1 22996U 94010A 25293.44389480 .00000466 00000-0 23289-3 0 9996 2 22996 29.0484 93.6846 5568553 315.3327 11.3549 4.64031891436297 0 STRV 1A 1 23125U 94034B 25281.51048673 .00002660 00000-0 72823-3 0 9994 2 23125 7.5707 49.5131 6425609 258.8973 27.6417 3.41052186325588 0 COSMOS 2286 1 23194U 94048A 25288.74651190 .00000783 00000-0 00000+0 0 9999 2 23194 66.8225 165.0118 5557737 124.8149 300.6169 2.00435768228563 0 ETS 6 1 23230U 94056A 25293.69358927 -.00000172 00000-0 00000-0 0 9995 2 23230 13.1707 259.7197 5007488 145.6191 282.9736 1.67087633190244 0 MOLNIYA 1-88 1 23420U 94081A 25290.15509262 -.00000027 00000-0 00000-0 0 9991 2 23420 64.2971 280.5001 5871597 261.5660 31.7102 3.34496534154438 0 MOLNIYA 3-47 1 23642U 95042A 25283.94953783 -.00001130 00000-0 00000-0 0 9991 2 23642 64.9765 294.4556 6812126 272.4406 17.4925 2.01950176221488 0 ISO 1 23715U 95062A 25293.01593294 .00000065 00000-0 19109-2 0 9997 2 23715 4.2941 319.1138 8374393 308.2635 2.4723 1.02099676111247 0 POLAR 1 23802U 96013A 25276.55606112 .00000203 00000-0 00000-0 0 9997 2 23802 79.5676 229.9074 6219033 217.7574 75.9205 1.29846605141529 0 CHINASAT 7 1 24282U 96048A 25293.17709626 -.00000067 00000-0 00000-0 0 9998 2 24282 16.7170 192.0122 3515120 258.5127 309.3710 1.06658278116156 0 MAGION 5 1 24292U 96050B 25284.62815908 .00000028 00000-0 -18740-5 0 9995 2 24292 62.6853 254.7685 5611430 265.2526 32.1065 4.14736293440910 0 INTERBALL AURORA 1 24293U 96050C 25283.26308079 .00000032 00000-0 00000-0 0 9990 2 24293 62.6874 255.1668 5611922 265.3138 32.0584 4.14737139440955 0 HALCA (MUSES B) 1 24720U 97005A 25293.68864925 .00000204 00000-0 98889-3 0 9996 2 24720 31.2542 67.8775 5991097 346.3071 206.0992 3.84642856400444 0 COSMOS 2340 1 24761U 97015A 25293.23163320 .00000580 00000-0 00000-0 0 9996 2 24761 65.2677 169.6166 6513677 154.9505 260.8832 2.00569576209026 0 COSMOS 2342 1 24800U 97022A 25292.35868918 -.00000294 00000-0 00000-0 0 9998 2 24800 67.5135 267.8624 6622937 133.3214 305.4698 1.99535513207601 0 MOLNIYA 1-90 1 24960U 97054A 25293.03782368 -.00000037 00000-0 15461-2 0 9994 2 24960 64.3887 252.5212 5967034 284.4551 19.3902 3.18690512246901 0 MAQSAT H 1 25023U 97066A 25293.55864627 .00000130 00000-0 14797-2 0 9998 2 25023 7.7491 108.4480 6491465 258.7429 30.8379 3.10820790316458 0 MAQSAT B 1 25024U 97066B 25293.53427949 .00000029 00000-0 61915-3 0 9991 2 25024 7.7520 112.6217 6512853 249.1183 130.6175 3.08936439315630 0 TEAMSAT 1 25025U 97066C 25293.13653610 .00000088 00000-0 68638-3 0 9998 2 25025 7.6203 147.1728 6505626 180.6104 154.0451 3.08011986127796 0 EQUATOR S 1 25068U 97075B 25292.87911547 -.00000488 00000-0 33831-2 0 9992 2 25068 6.0605 276.0386 8224740 288.2777 4.9159 1.07776212109876 0 COMETS 1 25175U 98011A 25293.50442270 -.00000052 00000-0 00000-0 0 9992 2 25175 30.1860 7.1271 5290879 152.9840 248.9452 4.38931769452338 0 COSMOS 2351 1 25327U 98027A 25293.72836799 -.00001007 00000-0 00000-0 0 9996 2 25327 63.6253 148.3214 7140763 179.7941 180.9259 2.00455500201160 0 MOLNIYA 1-91 1 25485U 98054A 25287.07647775 -.00000023 00000-0 00000-0 0 9993 2 25485 64.5850 321.0737 6756917 286.1381 13.5291 2.36443223207758 0 MAQSAT/ARIANE 5 1 25503U 98059A 25293.35491523 -.00000013 00000-0 62314-2 0 9992 2 25503 7.5145 338.8786 7004114 349.9081 1.4777 2.24575541221571 0 SEA LAUNCH DEMO 1 25661U 99014A 25293.61707691 -.00000163 00000-0 70577-3 0 9991 2 25661 1.2228 44.6811 7162084 158.5090 263.7306 2.23256364216758 0 USA 142 1 25669U 99017A 25293.53025272 -.00000043 00000-0 -27973-3 0 9991 2 25669 28.7887 147.8449 7062249 9.9522 359.0037 2.33040904 12706 0 MOLNIYA 3-50 1 25847U 99036A 25290.73625750 .00000047 00000-0 00000-0 0 9997 2 25847 63.5092 180.4191 6778274 279.0687 15.5843 2.00574994192555 0 CXO 1 25867U 99040B 25296.37207216 .00000767 00000-0 00000-0 0 9992 2 25867 52.0490 124.4132 8221787 310.6302 0.1667 0.37807083 16426 0 XMM 1 25989U 99066A 25295.01286634 .00000034 00000-0 00000-0 0 9993 2 25989 65.6738 286.1230 4767484 69.1086 0.1170 0.50135056 21818 0 COSMOS 2368 1 26042U 99073A 25293.20520029 -.00000511 00000-0 00000-0 0 9991 2 26042 67.2289 313.7162 6355983 166.4510 225.5141 2.00585557189112 0 FREGAT RB/CLUSTER 2 1 26106U 00015A 25293.79764784 .00000048 00000-0 97888-4 0 9990 2 26106 65.0990 224.2720 5447822 277.2857 26.8368 4.61252355427161 0 IMAGE 1 26113U 00017A 25291.36882504 .00000365 00000-0 16603-1 0 9997 2 26113 93.9684 311.9100 7609248 316.0621 4.4015 1.68664620157426 0 CLUSTER II-FM7 1 26410U 00041A 25294.33338620 .00000909 00000-0 00000-0 0 9996 2 26410 146.6295 20.2041 8655124 235.7311 0.9183 0.44797611 19246 0 CLUSTER II-FM5 1 26463U 00045A 25279.65635572 .00010692 -63660-5 00000+0 0 9998 2 26463 146.6979 96.1587 9117658 315.8839 1.9747 0.42958277 19041 0 CLUSTER II-FM8 1 26464U 00045B 25294.74889819 .00001017 00000-0 00000-0 0 9996 2 26464 146.9325 20.7802 8663624 236.1746 0.8590 0.44420468 19247 0 AMSAT OSCAR 40 1 26609U 00072B 25291.63312073 -.00000042 00000-0 00000-0 0 9993 2 26609 9.7941 26.5835 7947004 104.0416 346.4449 1.25588140114476 0 STRV 1C 1 26610U 00072C 25293.38199554 .00000186 00000-0 -38220-3 0 9993 2 26610 6.6172 84.9546 7338051 28.7038 356.8806 2.03538666185201 0 STRV 1D 1 26611U 00072D 25278.54594101 .00000023 00000-0 -46086-2 0 9990 2 26611 6.5363 90.7345 7342535 16.9680 358.3071 2.03398038 85307 0 LRE 1 26898U 01038A 25293.92137490 .00002274 00000-0 40251-3 0 9991 2 26898 28.1247 207.1977 6997178 118.8366 327.0773 2.65312982214376 0 MDS 1 1 27367U 02003A 25293.05422269 .00015368 00000-0 10278-2 0 9994 2 27367 28.4914 298.1018 4193947 76.8537 325.6185 7.08093810375705 0 DASH/VEP 3 1 27368U 02003B 25293.23357897 .00000532 00000-0 15290-2 0 9995 2 27368 29.0868 337.6301 7144653 165.1044 239.2523 2.36933704200336 0 INTEGRAL 1 27540U 02048A 25280.16444154 .00000269 00000-0 00000-0 0 9995 2 27540 91.1223 359.1932 8625551 267.8929 142.4523 0.37578924 25682 0 DOUBLESTAR (TC-2) 1 28382U 04029A 25293.41602133 .00010115 00000-0 23450-2 0 9993 2 28382 87.8859 240.8699 7083688 175.8355 197.4109 2.53526084174482 0 DELTA 4 DEMO SPACECRAFT 1 28500U 04050A 25293.59760495 -.00000115 00000-0 00000-0 0 9998 2 28500 14.4133 305.5322 2788601 9.0412 148.2453 1.41309900107508 0 SLOSHSAT 1 28544U 05005C 25293.61380305 .00002730 00000-0 98645-3 0 9997 2 28544 6.9566 113.6273 6947272 44.2983 353.9426 2.69662939184701 0 MAQSAT/ARIANE 5 1 28545U 05005D 25293.34945623 .00001838 00000-0 47521-3 0 9993 2 28545 6.6980 160.2956 7018748 311.3659 6.8169 2.61282777182189 0 THEMIS A 1 30580U 07004A 25292.95847125 .00000010 00000-0 44153-2 0 9998 2 30580 4.1827 151.2729 8447619 130.2927 340.0865 0.87835276 39161 0 THEMIS D 1 30797U 07004D 25293.72894944 -.00000047 00000-0 00000-0 0 9997 2 30797 4.3230 90.5676 8397657 194.5658 212.4199 0.87836334 38973 0 THEMIS E 1 30798U 07004E 25293.93217932 -.00000039 00000-0 00000-0 0 9998 2 30798 1.5550 110.4722 8399418 175.4678 290.1762 0.87837688 63812 0 SPIRALE A 1 33751U 09008C 25293.68720709 .00008073 00000-0 20463-2 0 9991 2 33751 1.9940 143.9427 5600609 104.0475 321.6985 4.63168640251045 0 SPIRALE B 1 33752U 09008D 25293.57517046 .00021971 00000-0 29035-2 0 9994 2 33752 1.7979 150.5538 6718770 79.9496 344.6854 3.03391848160776 0 EUTE W3B 1 37206U 10056A 25293.51483619 .00006202 00000-0 14340-2 0 9992 2 37206 2.1837 173.1887 6905664 176.0437 195.9388 2.76623010135515 0 MERIDIAN 3 1 37212U 10058A 25284.09269554 .00000114 00000-0 00000-0 0 9996 2 37212 63.4746 118.0292 6684905 261.6915 23.4106 2.00620690109469 0 MERIDIAN 4 1 37398U 11018A 25292.57796159 .00001335 00000-0 24107-2 0 9998 2 37398 62.1077 113.4618 7429655 262.4312 16.1239 2.00632501105936 0 SPEKTR R 1 37755U 11037A 25274.86529625 -.00000320 00000-0 00000-0 0 9998 2 37755 86.2960 317.6811 6943482 350.5069 4.1793 0.11323121 5611 0 TACSAT 4 1 37818U 11052A 25288.30028364 .00007737 00000-0 22447-2 0 9992 2 37818 62.8298 287.3879 4657420 276.0688 34.6567 6.13680116309738 0 RBSP A 1 38752U 12046A 25293.80198671 .00906068 38314-6 21968-2 0 9991 2 38752 9.5474 205.2993 5625152 24.1624 354.2678 4.76728557139774 0 RBSP B 1 38753U 12046B 25293.53355312 .00004670 00000-0 77223-3 0 9998 2 38753 10.2110 302.3141 6400508 192.0869 138.6347 3.46838453136203 0 MERIDIAN 6 1 38995U 12063A 25292.29935656 -.00000763 00000-0 00000-0 0 9998 2 38995 64.5747 29.0795 7285095 230.2542 39.2854 2.00627537 94674 0 MERIDIAN 7 1 40296U 14069A 25292.89878877 -.00000027 00000-0 00000-0 0 9993 2 40296 63.4701 239.6143 6758242 271.9514 18.1600 2.00616547 80415 0 MMS 1 1 40482U 15011A 25294.00002315 -.00000683 00000-0 00000-0 0 9997 2 40482 68.1071 352.5048 8565885 162.3063 21.3640 0.28279748 1358 0 MMS 2 1 40483U 15011B 25294.00002315 -.00000683 00000-0 00000-0 0 9998 2 40483 68.1112 352.5024 8568355 162.3048 21.3833 0.28278542 1352 0 MMS 3 1 40484U 15011C 25294.00002315 -.00000684 00000-0 00000-0 0 9990 2 40484 68.1143 352.5126 8567234 162.3147 21.3572 0.28278514 1354 0 MMS 4 1 40485U 15011D 25294.00002315 -.00000684 00000-0 00000-0 0 9991 2 40485 68.1033 352.4991 8567625 162.3216 21.3184 0.28279624 1355 0 COSMOS 2510 1 41032U 15066A 25267.52800105 .00001148 00000-0 00000-0 0 9995 2 41032 63.2402 23.0840 7202749 273.8769 14.2133 2.00523311 72133 0 ARASE (ERG) 1 41896U 16080A 25287.46488026 .00000029 00000-0 80770-3 0 9991 2 41896 31.4917 106.2250 6981662 257.2268 22.6972 2.57163631 81956 0 COSMOS 2518 1 42719U 17027A 25287.72824329 .00000627 00000-0 -13342-1 0 9991 2 42719 63.0691 279.0723 7105107 273.0854 14.9814 2.00754496 61472 0 PODSAT 1 43229U 18023B 25293.03482643 .00095574 00000-0 94833-3 0 9995 2 43229 26.8488 292.3881 3700397 311.6240 22.0847 8.13779009172666 0 MERIDIAN 8 1 44453U 19046A 25291.46960002 .00000161 00000-0 00000-0 0 9994 2 44453 62.9245 81.2882 6983420 274.1439 15.7006 2.00620146 45493 0 CHINASAT 18 1 44493U 19053A 25292.76278475 .00078821 80324-7 22018-3 0 9994 2 44493 28.2487 184.2471 6477768 70.7488 345.6390 3.44770008 61014 0 COSMOS 2541 1 44552U 19065A 25292.99340338 .00000131 00000-0 00000-0 0 9995 2 44552 62.7227 179.1443 6479686 272.3873 20.3815 2.00567378 44404 0 MERIDIAN 9 1 45254U 20015A 25293.19640294 -.00000095 00000-0 00000-0 0 9999 2 45254 65.4038 344.9468 6925040 281.8135 13.7064 2.00614255 41472 0 COSMOS 2546 1 45608U 20031A 25287.75105285 .00000343 00000-0 00000-0 0 9996 2 45608 63.1443 97.0446 6954585 265.2938 19.2273 2.00642056 39543 0 ARKTIKA-M 1 1 47719U 21016A 25273.30456647 -.00000067 00000-0 00000-0 0 9996 2 47719 63.1648 93.9278 7163272 268.8764 16.0765 2.00626972 33572 0 SHIYAN 10 (SY-10) 1 49258U 21087A 25270.20855578 .00000643 00000-0 00000-0 0 9995 2 49258 63.0963 251.0944 6961842 269.7956 17.2893 2.00646694 29257 0 COSMOS 2552 1 49503U 21113A 25293.15404201 -.00000260 00000-0 00000-0 0 9996 2 49503 62.8978 229.7257 6537383 272.5792 19.7525 2.00584522 28586 0 MERIDIAN 10 1 52145U 22030A 25291.70656557 .00000258 00000-0 00000-0 0 9999 2 52145 62.6586 166.3132 6740233 273.1795 17.9253 2.00592643 26188 0 COSMOS 2563 1 54223U 22145A 25293.88992978 -.00000904 00000-0 00000-0 0 9995 2 54223 63.5252 311.4618 7140356 269.1932 15.9841 2.00578707 21763 0 SHIYAN 10 02 (SY-10 02) 1 54878U 22178A 25290.89821756 .00000759 00000-0 00000+0 0 9996 2 54878 64.0285 349.3515 6991111 268.5318 17.5833 2.00599598 11691 0 INMARSAT 6-F2 1 55683U 23022A 25293.93031082 -.00000286 00000-0 00000-0 0 9990 2 55683 4.9185 34.6941 3070884 212.5096 73.3906 1.00956287 8136 0 ARKTIKA-M 2 1 58584U 23198A 25273.05302128 .00000143 00000-0 00000-0 0 9991 2 58584 63.2269 182.9022 6863775 268.4071 18.7501 2.00603125 13100 0 ASBM-1 1 60422U 24143A 25292.18256911 -.00000012 00000-0 00000-0 0 9995 2 60422 62.6542 54.8061 5516845 268.7730 30.9830 1.50421108 7992 0 ASBM-2 1 60423U 24143B 25289.85643494 -.00000002 00000-0 00000-0 0 9991 2 60423 62.6395 54.9927 5498510 268.8463 31.1079 1.50424788 7943 0 TJS-13 1 62188U 24227A 25293.13942596 .00000545 00000-0 00000-0 0 9996 2 62188 63.6072 67.6999 6957379 269.4664 17.5849 2.00623418 6433 0 PROBA-3 CSC 1 62256U 24233A 25285.14382466 -.00000054 00000-0 87660-3 0 9991 2 62256 59.4589 118.5740 8042006 198.1406 92.2646 1.22076585 3792 0 ASTRANIS UTILITYSAT 1 62454U 24252A 25293.73236315 -.00000480 00000-0 00000-0 0 9990 2 62454 8.8676 337.5118 7512172 226.0340 39.3585 1.00302770 3026 0 BLUE RING PATHFINDER 1 62720U 25011A 25292.89242088 -.00000093 00000-0 00000+0 0 9999 2 62720 29.8793 269.5720 4878041 109.6316 308.0041 3.84308037 10638 0 NVS-02 1 62850U 25020A 25292.77587462 .00000912 00000-0 56352-3 0 9992 2 62850 21.0873 347.1233 7353394 351.2306 1.1387 2.17532926 5744 0 COSMOS 2589 1 64467U 25131A 25293.53528183 -.00000259 00000-0 00000+0 0 9991 2 64467 0.5986 284.4507 3649816 172.0513 220.5296 1.00236471 1239 0 COSMOS 2590 1 64527U 25131C 25293.08939905 -.00000260 00000-0 00000+0 0 9998 2 64527 0.6310 283.9773 3649829 172.5093 59.5927 1.00236787 1207 0 PSN N5 1 65588U 25205A 25292.64498887 -.00000351 00000-0 00000-0 0 9990 2 65588 0.2499 276.5436 3905834 101.5635 352.9969 0.99403757 359 0 IMAP 1 65725U 25215A 25267.53063565 .00002517 -79589-5 00000-0 0 9994 2 65725 28.3800 11.9000 9893700 3.5500 0.0022 0.01790468 18 0 SWFO 1 65726U 25215B 25267.53063565 .00002517 -79589-5 00000-0 0 9995 2 65726 28.3800 11.9000 9893700 3.5500 0.0022 0.01790468 19 0 CARRUTHERS 1 65727U 25215C 25267.53063565 .00002517 -79589-5 00000-0 0 9996 2 65727 28.3800 11.9000 9893700 3.5500 0.0022 0.01790468 10